Photometre #845[NE_1.6_Dp] EastMalling_MO AOT

File : 20220922_845.hum

22/09/2022,06:41:09,TEMP=8.1,BA=5.68,STAT.A,ExtBa=12.30
22/09/2022,06:45:17,TEMP=8.4,BA=5.68,STAT.A,ExtBa=12.20
22/09/2022,06:48:23,TEMP=8.7,BA=5.68,STAT.D,ExtBa=12.20
22/09/2022,06:50:23,TEMP=9.0,BA=5.48,STAT.A,ExtBa=12.20
22/09/2022,06:54:01,TEMP=9.1,BA=5.48,STAT.h
22/09/2022,06:55:29,TEMP=9.1,BA=5.48,STAT.h
22/09/2022,06:55:30,TEMP=9.1,BA=5.48,STAT.h
22/09/2022,06:57:01,TEMP=9.1,BA=5.48,STAT.h
22/09/2022,07:00:01,TEMP=9.1,BA=5.48,STAT.h
22/09/2022,07:02:26,TEMP=9.1,BA=5.68,STAT.h
22/09/2022,07:02:27,TEMP=9.1,BA=5.68,STAT.h
22/09/2022,07:03:01,TEMP=9.1,BA=5.68,STAT.h
22/09/2022,07:06:01,TEMP=9.1,BA=5.68,STAT.h
22/09/2022,07:09:01,TEMP=9.1,BA=5.68,STAT.h
22/09/2022,07:11:03,TEMP=9.1,BA=5.68,STAT.h
22/09/2022,07:11:04,TEMP=9.1,BA=5.68,STAT.h
22/09/2022,07:12:01,TEMP=9.1,BA=5.68,STAT.h
22/09/2022,07:15:01,TEMP=9.1,BA=5.68,STAT.h
22/09/2022,07:18:01,TEMP=9.1,BA=5.68,STAT.h
22/09/2022,07:21:01,TEMP=9.1,BA=5.68,STAT.h
22/09/2022,07:21:58,TEMP=9.1,BA=5.68,STAT.h
22/09/2022,07:24:01,TEMP=9.1,BA=5.68,STAT.h
22/09/2022,07:27:01,TEMP=9.1,BA=5.68,STAT.h
22/09/2022,07:27:15,TEMP=9.1,BA=5.68,STAT.h
22/09/2022,07:27:21,TEMP=9.1,BA=5.68,STAT.h
22/09/2022,07:33:31,TEMP=11.1,BA=5.68,STAT.A,ExtBa=12.30
22/09/2022,07:36:23,TEMP=11.5,BA=5.68,STAT.D,ExtBa=12.20
22/09/2022,07:39:23,TEMP=11.7,BA=5.68,STAT.D,ExtBa=12.20
22/09/2022,07:41:24,TEMP=12.1,BA=5.44,STAT.A,ExtBa=12.20
22/09/2022,07:45:23,TEMP=12.1,BA=5.44,STAT.D,ExtBa=12.20
22/09/2022,07:47:50,TEMP=12.4,BA=5.44,STAT.A,ExtBa=12.20
22/09/2022,07:51:23,TEMP=12.5,BA=5.48,STAT.D,ExtBa=12.20
22/09/2022,07:54:23,TEMP=12.8,BA=5.48,STAT.D,ExtBa=12.20
22/09/2022,07:56:39,TEMP=13.0,BA=5.48,STAT.C,ExtBa=12.10
22/09/2022,08:21:17,TEMP=15.0,BA=5.40,STAT.A,ExtBa=12.10
22/09/2022,08:24:31,TEMP=15.0,BA=5.40,STAT.A,ExtBa=12.10
22/09/2022,08:27:24,TEMP=15.2,BA=5.40,STAT.D,ExtBa=12.10
22/09/2022,08:30:24,TEMP=15.5,BA=5.52,STAT.D,ExtBa=12.10
22/09/2022,08:33:24,TEMP=15.7,BA=5.52,STAT.D,ExtBa=12.10
22/09/2022,08:35:23,TEMP=16.1,BA=5.52,STAT.A,ExtBa=12.10
22/09/2022,08:39:24,TEMP=16.1,BA=5.52,STAT.D,ExtBa=12.10
22/09/2022,08:42:24,TEMP=16.5,BA=5.44,STAT.D,ExtBa=12.10
22/09/2022,08:45:24,TEMP=16.8,BA=5.44,STAT.D,ExtBa=12.10
22/09/2022,08:48:24,TEMP=17.2,BA=5.44,STAT.D,ExtBa=12.10
22/09/2022,08:51:24,TEMP=17.5,BA=5.44,STAT.D,ExtBa=12.10
22/09/2022,08:53:24,TEMP=17.9,BA=5.44,STAT.F,ExtBa=12.10
22/09/2022,09:19:38,TEMP=20.4,BA=5.40,STAT.D,ExtBa=12.00
22/09/2022,09:23:01,TEMP=20.3,BA=5.40,STAT.D,ExtBa=12.10
22/09/2022,09:27:24,TEMP=20.2,BA=5.40,STAT.D,ExtBa=12.10
22/09/2022,09:30:24,TEMP=20.4,BA=5.52,STAT.D,ExtBa=12.10
22/09/2022,09:33:24,TEMP=20.4,BA=5.52,STAT.D,ExtBa=12.10
22/09/2022,09:36:24,TEMP=20.4,BA=5.52,STAT.D,ExtBa=12.10
22/09/2022,09:38:23,TEMP=20.6,BA=5.52,STAT.D,ExtBa=12.00
22/09/2022,09:42:24,TEMP=20.3,BA=5.40,STAT.D,ExtBa=12.10
22/09/2022,09:45:24,TEMP=20.4,BA=5.40,STAT.D,ExtBa=12.10
22/09/2022,09:48:24,TEMP=20.5,BA=5.40,STAT.D,ExtBa=12.10
22/09/2022,09:51:24,TEMP=20.7,BA=5.40,STAT.D,ExtBa=12.10
22/09/2022,09:53:25,TEMP=21.1,BA=5.40,STAT.F,ExtBa=12.10
22/09/2022,10:19:58,TEMP=21.8,BA=5.36,STAT.D,ExtBa=12.10
22/09/2022,10:22:04,TEMP=22.0,BA=5.36,STAT.D,ExtBa=12.00
22/09/2022,10:24:24,TEMP=21.8,BA=5.36,STAT.D,ExtBa=12.10
22/09/2022,10:27:24,TEMP=21.6,BA=5.36,STAT.D,ExtBa=12.10
22/09/2022,10:30:24,TEMP=21.5,BA=5.44,STAT.D,ExtBa=12.10
22/09/2022,10:33:24,TEMP=21.5,BA=5.44,STAT.D,ExtBa=12.10
22/09/2022,10:36:24,TEMP=21.5,BA=5.44,STAT.D,ExtBa=12.10
22/09/2022,10:38:23,TEMP=21.9,BA=5.44,STAT.D,ExtBa=12.00
22/09/2022,10:42:24,TEMP=21.8,BA=5.36,STAT.D,ExtBa=12.10
22/09/2022,10:45:24,TEMP=22.0,BA=5.36,STAT.D,ExtBa=12.10
22/09/2022,10:48:24,TEMP=22.1,BA=5.36,STAT.D,ExtBa=12.10
22/09/2022,10:51:46,TEMP=22.0,BA=5.36,STAT.F,ExtBa=12.10
22/09/2022,11:17:49,TEMP=23.3,BA=5.36,STAT.D,ExtBa=12.00
22/09/2022,11:21:24,TEMP=22.8,BA=5.36,STAT.D,ExtBa=12.00
22/09/2022,11:23:21,TEMP=23.0,BA=5.36,STAT.D,ExtBa=12.00
22/09/2022,11:36:24,TEMP=22.4,BA=5.44,STAT.D,ExtBa=12.10
22/09/2022,11:38:21,TEMP=22.8,BA=5.44,STAT.D,ExtBa=12.00
22/09/2022,11:51:24,TEMP=22.0,BA=5.44,STAT.D,ExtBa=12.10
22/09/2022,11:53:22,TEMP=22.3,BA=5.44,STAT.F,ExtBa=12.10
22/09/2022,12:06:24,TEMP=22.0,BA=5.44,STAT.D,ExtBa=12.10
22/09/2022,12:08:22,TEMP=22.3,BA=5.44,STAT.D,ExtBa=12.10
22/09/2022,12:12:24,TEMP=21.9,BA=5.36,STAT.D,ExtBa=12.10
22/09/2022,12:21:44,TEMP=21.4,BA=5.44,STAT.D,ExtBa=12.10
22/09/2022,12:33:24,TEMP=21.8,BA=5.44,STAT.D,ExtBa=12.10
22/09/2022,12:36:24,TEMP=22.2,BA=5.44,STAT.D,ExtBa=12.10
22/09/2022,12:38:31,TEMP=22.6,BA=5.44,STAT.D,ExtBa=12.10
22/09/2022,12:42:24,TEMP=22.4,BA=5.36,STAT.D,ExtBa=12.10
22/09/2022,12:45:24,TEMP=22.6,BA=5.36,STAT.D,ExtBa=12.10
22/09/2022,12:48:24,TEMP=22.5,BA=5.36,STAT.D,ExtBa=12.10
22/09/2022,12:51:24,TEMP=22.4,BA=5.36,STAT.D,ExtBa=12.10
22/09/2022,12:53:25,TEMP=22.5,BA=5.36,STAT.F,ExtBa=12.10
22/09/2022,13:06:24,TEMP=21.2,BA=5.44,STAT.D,ExtBa=12.10
22/09/2022,13:08:22,TEMP=21.5,BA=5.44,STAT.D,ExtBa=12.10
22/09/2022,13:18:24,TEMP=21.4,BA=5.36,STAT.D,ExtBa=12.10
22/09/2022,13:21:44,TEMP=21.6,BA=5.40,STAT.D,ExtBa=12.10
22/09/2022,13:33:24,TEMP=21.2,BA=5.48,STAT.D,ExtBa=12.10
22/09/2022,13:36:24,TEMP=21.5,BA=5.48,STAT.D,ExtBa=12.10
22/09/2022,13:38:23,TEMP=21.9,BA=5.48,STAT.D,ExtBa=12.10
22/09/2022,13:42:24,TEMP=21.8,BA=5.36,STAT.D,ExtBa=12.10
22/09/2022,13:45:24,TEMP=21.8,BA=5.36,STAT.D,ExtBa=12.10
22/09/2022,13:51:45,TEMP=21.4,BA=5.48,STAT.F,ExtBa=12.10
22/09/2022,14:03:24,TEMP=20.9,BA=5.48,STAT.D,ExtBa=12.10
22/09/2022,14:06:44,TEMP=20.9,BA=5.48,STAT.D,ExtBa=12.10
22/09/2022,14:18:24,TEMP=20.5,BA=5.44,STAT.D,ExtBa=12.10
22/09/2022,14:21:44,TEMP=20.6,BA=5.40,STAT.D,ExtBa=12.10
22/09/2022,14:33:24,TEMP=21.2,BA=5.48,STAT.D,ExtBa=12.10
22/09/2022,14:36:24,TEMP=21.5,BA=5.48,STAT.D,ExtBa=12.10
22/09/2022,14:38:27,TEMP=21.9,BA=5.48,STAT.D,ExtBa=12.10
22/09/2022,14:51:24,TEMP=21.0,BA=5.48,STAT.D,ExtBa=12.10
22/09/2022,14:53:23,TEMP=21.3,BA=5.48,STAT.F,ExtBa=12.10
22/09/2022,15:18:17,TEMP=21.9,BA=5.32,STAT.A,ExtBa=12.00
22/09/2022,15:24:09,TEMP=20.9,BA=5.32,STAT.A,ExtBa=12.10
22/09/2022,15:27:24,TEMP=20.9,BA=5.32,STAT.D,ExtBa=12.10
22/09/2022,15:36:30,TEMP=20.6,BA=5.48,STAT.A,ExtBa=12.10
22/09/2022,15:39:23,TEMP=20.7,BA=5.48,STAT.D,ExtBa=12.10
22/09/2022,15:42:23,TEMP=20.7,BA=5.36,STAT.D,ExtBa=12.00
22/09/2022,15:45:23,TEMP=20.6,BA=5.36,STAT.D,ExtBa=12.00
22/09/2022,15:47:23,TEMP=20.7,BA=5.36,STAT.C,ExtBa=12.00
22/09/2022,15:55:40,TEMP=19.7,BA=5.44,STAT.A,ExtBa=12.10
22/09/2022,16:03:18,TEMP=19.3,BA=5.48,STAT.A,ExtBa=12.10
22/09/2022,16:06:23,TEMP=19.3,BA=5.48,STAT.D,ExtBa=12.10
22/09/2022,16:09:23,TEMP=19.3,BA=5.48,STAT.D,ExtBa=12.10
22/09/2022,16:11:23,TEMP=19.5,BA=5.36,STAT.A,ExtBa=12.00
22/09/2022,16:15:23,TEMP=19.1,BA=5.36,STAT.D,ExtBa=12.10
22/09/2022,16:17:23,TEMP=19.4,BA=5.36,STAT.A,ExtBa=12.00
22/09/2022,16:21:08,TEMP=19.1,BA=5.44,STAT.B,ExtBa=12.10
22/09/2022,16:32:03,TEMP=18.8,BA=5.32,STAT.A,ExtBa=12.00
22/09/2022,16:40:40,TEMP=18.2,BA=5.48,STAT.A,ExtBa=12.10
22/09/2022,16:47:37,TEMP=17.9,BA=5.48,STAT.A,ExtBa=12.10
22/09/2022,16:53:23,TEMP=17.7,BA=5.44,STAT.A,ExtBa=12.10
22/09/2022,16:57:23,TEMP=17.6,BA=5.44,STAT.D,ExtBa=12.10
22/09/2022,16:59:22,TEMP=17.8,BA=5.44,STAT.A,ExtBa=12.00
22/09/2022,17:02:21,TEMP=17.6,BA=5.36,STAT.A,ExtBa=12.10